Lincolnton, NC

2:36 AM EDT on October 17, 2017 (GMT -0400)
Lincolnton-Lincoln County Regional

Weather History for KIPJ - December, 2012

Change the Weather History Date:

Saturday, December 29, 2012

  Actual Average (KCLT) Record (KCLT)
Temperature  
Mean Temperature 42 °F -  
Max Temperature 51 °F 50 °F 76 °F (2015)
Min Temperature 32 °F 32 °F 2 °F (1894)
Degree Days  
Heating Degree Days 23    
Moisture  
Dew Point 32 °F    
Average Humidity 78    
Maximum Humidity 100    
Minimum Humidity 43    
Precipitation  
Precipitation 0.09 in - - ()
Sea Level Pressure  
Sea Level Pressure 29.84 in    
Wind  
Wind Speed 3 mph (WNW)    
Max Wind Speed 15 mph    
Max Gust Speed 26 mph    
Visibility 7 miles    
Events Rain    
Averages and records for this station are not official NWS values.
T = Trace of Precipitation, MM = Missing Value Source: NWS Daily Summary

Daily Weather History Graph

Daily Weather History Graph

Search for Another Location

Airport or City:

Trip Planner

Search our weather history database for the weather conditions in past years. The results will help you decide how hot, cold, wet, or windy it might be!

Date:

Astronomy

Dec. 29, 2012 Rise Set
Actual Time 7:33 AM EST 5:20 PM EST
Civil Twilight 7:05 AM EST 5:49 PM EST
Nautical Twilight 6:33 AM EST 6:20 PM EST
Astronomical Twilight 6:02 AM EST 6:51 PM EST
Moon 6:48 PM EST (12/29) 8:08 AM EST (12/29)
Length of Visible Light 10h 44m
Length of Day
9h 47m
Full, 98% of the Moon is Illuminated
Dec 29
Full
Jan 4
Last Quarter
Jan 11
New
Jan 18
First Quarter
Jan 26
Full

Hourly Weather History & Observations

Time (EST) Temp. Windchill Dew Point Humidity Pressure Visibility Wind Dir Wind Speed Gust Speed Precip Events Conditions
12:15 AM 35.6 °F - 33.8 °F 93% 29.97 in 7.0 mi Calm Calm - N/A Rain Light Rain
12:35 AM 35.6 °F - 33.8 °F 93% 29.98 in 7.0 mi Calm Calm - N/A   Overcast
12:55 AM 35.6 °F - 33.8 °F 93% 29.95 in 7.0 mi Calm Calm - N/A   Overcast
1:15 AM 35.6 °F - 33.8 °F 93% 29.93 in 7.0 mi Calm Calm - N/A Rain Light Rain
1:35 AM 35.6 °F - 33.8 °F 93% 29.92 in 5.0 mi Calm Calm - N/A   Overcast
1:55 AM 35.6 °F - 35.6 °F 100% 29.92 in 5.0 mi Calm Calm - N/A Rain Light Rain
2:15 AM 35.6 °F - 35.6 °F 100% 29.92 in 5.0 mi Calm Calm - N/A Rain Light Rain
2:35 AM 35.6 °F - 35.6 °F 100% 29.92 in 3.0 mi Calm Calm - 0.01 in Rain Light Rain
2:55 AM 35.6 °F - 35.6 °F 100% 29.90 in 2.5 mi Calm Calm - 0.02 in Rain Light Rain
3:15 AM 35.6 °F - 35.6 °F 100% 29.90 in 2.5 mi Calm Calm - 0.02 in Rain Light Rain
3:35 AM 35.6 °F - 35.6 °F 100% 29.86 in 2.5 mi Calm Calm - 0.04 in Rain Rain
3:55 AM 35.6 °F - 35.6 °F 100% 29.81 in 1.5 mi Calm Calm - 0.06 in Rain Rain
4:15 AM 35.6 °F - 35.6 °F 100% 29.84 in 2.5 mi Calm Calm - 0.01 in Rain Light Rain
4:35 AM 35.6 °F - 35.6 °F 100% 29.80 in 3.0 mi Calm Calm - 0.01 in   Overcast
4:55 AM 35.6 °F - 35.6 °F 100% 29.78 in 3.0 mi Calm Calm - 0.01 in   Overcast
5:15 AM 35.6 °F - 35.6 °F 100% 29.78 in 3.0 mi Calm Calm - N/A   Overcast
5:35 AM 35.6 °F - 35.6 °F 100% 29.77 in 4.0 mi Calm Calm - N/A   Overcast
5:55 AM 35.6 °F - 35.6 °F 100% 29.76 in 3.0 mi Calm Calm - N/A   Overcast
6:15 AM 35.6 °F - 35.6 °F 100% 29.76 in 3.0 mi Calm Calm - N/A   Overcast
6:35 AM 35.6 °F - 35.6 °F 100% 29.77 in 3.0 mi Calm Calm - N/A   Overcast
6:55 AM 35.6 °F 32.8 °F 35.6 °F 100% 29.78 in 3.0 mi NW 3.5 mph - N/A   Overcast
7:15 AM 35.6 °F - 33.8 °F 93% 29.79 in 2.5 mi Calm Calm - N/A   Light Drizzle
7:35 AM 35.6 °F - 33.8 °F 93% 29.78 in 2.5 mi Calm Calm - N/A   Drizzle
7:55 AM 35.6 °F - 33.8 °F 93% 29.78 in 2.0 mi Calm Calm - N/A Rain Light Rain
8:15 AM 35.6 °F - 33.8 °F 93% 29.78 in 2.5 mi Calm Calm - N/A   Overcast
8:35 AM 35.6 °F - 33.8 °F 93% 29.78 in 2.5 mi Calm Calm - N/A   Overcast
8:55 AM 35.6 °F - 33.8 °F 93% 29.78 in 3.0 mi Calm Calm - N/A   Overcast
9:15 AM 35.6 °F - 35.6 °F 100% 29.77 in 2.5 mi Calm Calm - N/A   Overcast
9:35 AM 35.6 °F - 35.6 °F 100% 29.78 in 2.5 mi Calm Calm - N/A   Overcast
9:55 AM 35.6 °F - 35.6 °F 100% 29.78 in 2.5 mi Calm Calm - N/A   Overcast
10:15 AM 37.4 °F 33.8 °F 37.4 °F 100% 29.78 in 2.5 mi WNW 4.6 mph - N/A   Overcast
10:35 AM 37.4 °F 34.9 °F 37.4 °F 100% 29.78 in 2.5 mi West 3.5 mph - N/A   Overcast
10:55 AM 37.4 °F 33.8 °F 37.4 °F 100% 29.78 in 3.0 mi WNW 4.6 mph - N/A   Overcast
11:15 AM 39.2 °F 34.2 °F 37.4 °F 93% 29.78 in 3.0 mi WNW 6.9 mph - N/A   Overcast
11:35 AM 41.0 °F 35.8 °F 39.2 °F 93% 29.77 in 4.0 mi WNW 8.1 mph - N/A   Overcast
11:55 AM 42.8 °F 35.8 °F 39.2 °F 87% 29.76 in 7.0 mi West 13.8 mph - N/A   Overcast
12:15 PM 44.6 °F 39.7 °F 39.2 °F 81% 29.75 in 10.0 mi West 9.2 mph 18.4 mph N/A   Overcast
12:35 PM 44.6 °F 40.2 °F 39.2 °F 81% 29.75 in 10.0 mi WSW 8.1 mph - N/A   Mostly Cloudy
12:55 PM 46.4 °F 40.4 °F 37.4 °F 71% 29.74 in 10.0 mi WSW 13.8 mph - N/A   Mostly Cloudy
1:15 PM 46.4 °F 41.1 °F 37.4 °F 71% 29.74 in 10.0 mi West 11.5 mph - N/A   Scattered Clouds
1:35 PM 48.2 °F - 37.4 °F 66% 29.73 in 10.0 mi West 9.2 mph 17.3 mph N/A   Clear
1:55 PM 50.0 °F - 35.6 °F 58% 29.73 in 10.0 mi West 13.8 mph 20.7 mph N/A   Clear
2:15 PM 51.8 °F - 33.8 °F 50% 29.73 in 10.0 mi WSW 15.0 mph 23.0 mph N/A   Scattered Clouds
2:35 PM 50.0 °F - 33.8 °F 54% 29.73 in 10.0 mi West 13.8 mph 19.6 mph N/A   Scattered Clouds
2:55 PM 51.8 °F - 32.0 °F 47% 29.74 in 10.0 mi West 11.5 mph 18.4 mph N/A   Clear
3:15 PM 50.0 °F - 28.4 °F 43% 29.75 in 10.0 mi West 13.8 mph 26.5 mph N/A   Clear
3:35 PM 50.0 °F - 28.4 °F 43% 29.76 in 10.0 mi WNW 10.4 mph 24.2 mph N/A   Clear
3:55 PM 50.0 °F - 28.4 °F 43% 29.77 in 10.0 mi WNW 8.1 mph 19.6 mph N/A   Clear
4:15 PM 46.4 °F 42.9 °F 28.4 °F 50% 29.78 in 10.0 mi WNW 6.9 mph 21.9 mph N/A   Scattered Clouds
4:35 PM 46.4 °F 41.5 °F 28.4 °F 50% 29.79 in 10.0 mi WNW 10.4 mph 20.7 mph N/A   Mostly Cloudy
4:55 PM 46.4 °F 42.9 °F 28.4 °F 50% 29.81 in 10.0 mi West 6.9 mph - N/A   Overcast
5:15 PM 44.6 °F 38.1 °F 28.4 °F 53% 29.82 in 10.0 mi WNW 13.8 mph 20.7 mph N/A   Overcast
5:35 PM 42.8 °F 37.0 °F 28.4 °F 57% 29.83 in 10.0 mi WNW 10.4 mph 17.3 mph N/A   Scattered Clouds
5:55 PM 42.8 °F 38.6 °F 28.4 °F 57% 29.84 in 10.0 mi WNW 6.9 mph - N/A   Mostly Cloudy
6:15 PM 41.0 °F 37.1 °F 28.4 °F 61% 29.85 in 10.0 mi WNW 5.8 mph - N/A   Overcast
6:35 PM 41.0 °F 38.0 °F 28.4 °F 61% 29.86 in 10.0 mi NW 4.6 mph - N/A   Overcast
6:55 PM 41.0 °F 35.8 °F 26.6 °F 57% 29.87 in 10.0 mi NW 8.1 mph - N/A   Overcast
7:15 PM 39.2 °F 33.0 °F 26.6 °F 61% 29.88 in 10.0 mi WNW 9.2 mph - N/A   Mostly Cloudy
7:35 PM 39.2 °F 33.6 °F 26.6 °F 61% 29.90 in 10.0 mi WNW 8.1 mph 16.1 mph N/A   Clear
7:55 PM 39.2 °F 35.0 °F 26.6 °F 61% 29.91 in 10.0 mi West 5.8 mph - N/A   Clear
8:15 PM 37.4 °F 33.8 °F 26.6 °F 65% 29.92 in 10.0 mi WNW 4.6 mph - N/A   Scattered Clouds
8:35 PM 37.4 °F 31.4 °F 26.6 °F 65% 29.94 in 10.0 mi WNW 8.1 mph - N/A   Scattered Clouds
8:55 PM 37.4 °F 32.1 °F 26.6 °F 65% 29.95 in 10.0 mi WNW 6.9 mph - N/A   Clear
9:15 PM 37.4 °F 32.1 °F 24.8 °F 60% 29.95 in 10.0 mi WNW 6.9 mph - N/A   Clear
9:35 PM 37.4 °F - 24.8 °F 60% 29.96 in 10.0 mi Calm Calm - N/A   Mostly Cloudy
9:55 PM 35.6 °F 30.7 °F 24.8 °F 65% 29.97 in 10.0 mi West 5.8 mph - N/A   Scattered Clouds
10:15 PM 35.6 °F 31.7 °F 23.0 °F 60% 29.98 in 10.0 mi WNW 4.6 mph - N/A   Clear
10:35 PM 33.8 °F 27.0 °F 23.0 °F 65% 30.00 in 10.0 mi West 8.1 mph - N/A   Clear
10:55 PM 35.6 °F 32.8 °F 23.0 °F 60% 30.00 in 10.0 mi WNW 3.5 mph - N/A   Clear
11:15 PM 35.6 °F - 23.0 °F 60% 30.01 in 10.0 mi Calm Calm - N/A   Clear
11:35 PM 33.8 °F - 23.0 °F 65% 30.03 in 10.0 mi Calm Calm - N/A   Clear
11:55 PM 32.0 °F - 24.8 °F 75% 30.03 in 10.0 mi Calm Calm - N/A   Mostly Cloudy